Location: Campestrin
(46.4667°N, 11.7167°E)
Time: 04:22:35
(UTC+00:00)

Cosmos 2219 - Pass Details

Date: 18 April 2021
Orbit: 834 x 860 km, 71.1° (Epoch: 16 May)

Event Time Altitude Azimuth Distance (km) Brightness Sun altitude
Exits shadow 20:05:43 30° 160° (SSE) 1,466 4.0 -18.9°
Maximum altitude 20:08:01 46° 108° (ESE) 1,118 3.4 -19.2°
Drops below altitude 10° 20:13:21 10° 37° (NE) 2,455 5.7 -19.9°
Sets 20:15:53 0° 32° (NNE) 3,396 6.5 -20.2°
